Regional Weather Roundup
Issued by NWS

Home | Current Version | Previous Version | Text Only | Print | Product List | Glossary On
Versions: 1 2 3 4 5 6 7 8 9 10 11 12 13 14 15 16 17 18 19 20 21 22 23 24 25 26 27 28
000
ASUS46 KSEW 082210
RWRWA

WASHINGTON REGIONAL WEATHER ROUNDUP
NATIONAL WEATHER SERVICE SEATTLE WA
200 PM PST THU DEC 08 2016

NOTE:"FAIR" INDICATES FEW OR NO CLOUDS BELOW 12,000 FEET WITH NO
SIGNIFICANT WEATHER AND/OR OBSTRUCTIONS TO VISIBILITY.

WAZ507-509-555>559-082300-
SEATTLE, TACOMA, EVERETT, AND VICINITY

CITY           SKY/WX    TMP DP  RH WIND       PRES   REMARKS
EVERETT        PTSUNNY   37  11  34 E12       29.96F
BOEING FIELD   PTSUNNY   40  11  30 E9        29.98F
RENTON         PTSUNNY   40  11  30 SE8       29.98F
SEATAC AIRPORT PTSUNNY   37  11  34 E18G26    29.96F
JBLM-MCCHORD   CLOUDY    36  15  42 VRB5      29.94R
PUYALLUP       FAIR      36  23  60 CALM      29.92S
BREMERTON      PTSUNNY   36  18  48 N10       29.99F
JBLM-FT LEWIS  CLOUDY    36  18  47 NW3       29.94R
TACOMA NARROWS PTSUNNY   36  14  40 VRB6      29.95S
$$

WAZ001-503-506-510-514-515-082300-
NORTH INTERIOR

CITY           SKY/WX    TMP DP  RH WIND       PRES   REMARKS
BELLINGHAM     PTSUNNY   32   6  33 NE20G32   30.05F WCI  20
FRIDAY HARBOR  MOSUNNY   37  12  35 N9        30.04F
EASTSOUND      MOSUNNY   32  12  43 NE13G30   30.05F WCI  22
PORT ANGELES   MOSUNNY   35  21  56 E16G23    29.98F WCI  25
EDIZ HOOK      FAIR      37  24  58 E23G29    29.99F
PORT TOWNSEND    N/A     37  19  48 E6        30.01F
NAS WHIDBEY    PTSUNNY   38  11  32 NE12      30.05F
ARLINGTON      PTSUNNY   37  18  44 NE5       30.01F
BURLINGTON     NOT AVBL
$$

WAZ020-022-039-040-504-511-512-082300-
SOUTHWEST INTERIOR

CITY           SKY/WX    TMP DP  RH WIND       PRES   REMARKS
SHELTON        PTSUNNY   37  16  42 VRB7G17   29.93S
OLYMPIA        PTSUNNY   37  17  44 NE10      29.93S
CHEHALIS       HAZE      34  30  86 SE9G18    29.94  VSB 1/2
KELSO          SNOW      32  30  93 S6        29.93S VSB 1/4
VANCOUVER      SNOW      30  24  78 E14G24    29.93F VSB 1/2 WCI  19
SCAPPOOSE, OR  SNOW      30  28  92 E5        29.94F VSB 1/2
PORTLAND, OR   SNOW      30  25  81 E28G35    29.91F VSB 1/2 WCI  15
$$

WAZ021-516-517-082300-
WASHINGTON COAST

CITY           SKY/WX    TMP DP  RH WIND       PRES   REMARKS
FORKS          MOSUNNY   35  21  56 NE21G31   29.84F WCI  24
HOQUIAM        CLOUDY    37  19  48 NE22G32   29.84F
ASTORIA, OR    LGT SNOW  35  28  75 E16       29.83S WCI  25
$$

WAZ019-023-024-040-567>569-082300-
CASCADE MOUNTAINS AND COLUMBIA GORGE

CITY           SKY/WX    TMP DP  RH WIND       PRES   REMARKS
STAMPEDE PASS  PTSUNNY   12  10  92 VRB7      29.90S
TROUTDALE, OR  LGT SNOW  30  25  81 E24G33    29.94S WCI  16
THE DALLES, OR SNOW      25  22  88 E5        30.20F VSB 1/4
$$

WAZ026-027-041>044-520-521-082300-
EAST SLOPES

CITY           SKY/WX    TMP DP  RH WIND       PRES   REMARKS
OMAK           MOSUNNY   25   8  48 N18G25    30.26F WCI  11
WENATCHEE      CLOUDY    24  11  57 W5        30.22F
ELLENSBURG     PTSUNNY   26  10  50 W3        30.13F
YAKIMA         CLOUDY    29  11  47 NE9       30.21S
$$

WAZ028-034-035-082300-
COLUMBIA BASIN

CITY           SKY/WX    TMP DP  RH WIND       PRES   REMARKS
EPHRATA        CLOUDY    25  11  55 N13       30.21F WCI  14
MOSES LAKE     CLOUDY    26  12  55 NE13      30.22F WCI  15
PASCO          CLOUDY    27  18  69 N7        30.24F
HERMISTON, OR  CLOUDY    25  16  68 E5        30.19F
$$

WAZ036>038-082300-
NORTHEAST WASHINGTON

CITY           SKY/WX    TMP DP  RH WIND       PRES   REMARKS
SPOKANE GEIGER MOSUNNY   23   6  48 NE13      30.15F WCI  11
SPOKANE FELTS  SUNNY     26   8  46 NE7G17    30.19F
FAIRCHILD AFB  SUNNY     22   6  51 NE16      30.13F WCI   8
COEURDALENE,ID SUNNY     22   7  52 N22       30.18F WCI   6
DEER PARK      SUNNY     23   0  36 NE18G26   30.20F WCI   9
$$

WAZ029>033-082300-
SOUTHEAST WASHINGTON

CITY           SKY/WX    TMP DP  RH WIND       PRES   REMARKS
PULLMAN        MOSUNNY   24  11  57 E13       30.10F WCI  12
LEWISTON, ID   MOSUNNY   23  14  68 SW3       30.16F
WALLA WALLA    CLOUDY    18  14  84 CALM      30.16F FOG
PENDLETON, OR  CLOUDY    18  14  84 CALM      30.13F
$$




USA.gov is the U.S. government's official web portal to all federal, state and local government web resources and services.